Preview of NWS' New Version of Forecast
This preview is not operational and should not be used for support decisions.

Regional Weather Roundup (RWR)

Issued by National Weather Service (NWS)

                            
000
ASUS44 KMEG 221500
RWRTN 
TENNESSEE HOURLY STATE WEATHER ROUNDUP
NATIONAL WEATHER SERVICE MEMPHIS TN
1000 AM CDT WED MAY 22 2019

TNZ002-004-019-021-049-052-054-088>092-221600-
WEST TENNESSEE
  
CITY           SKY/WX    TMP DP  RH WIND       PRES   REMARKS
MEMPHIS INTL   CLOUDY    70  69  97 SW5       29.96R                  
NWS MEMPHIS      N/A     69 N/A N/A MISG        N/A                   
JACKSON        CLOUDY    76  70  82 S10       29.98R                  
DYERSBURG      LGT RAIN  67  66  97 E3        29.97R                  
$$

TNZ008-025-027-028-033-062-065-066-221600-
NORTH MIDDLE TENNESSEE
  
CITY           SKY/WX    TMP DP  RH WIND       PRES   REMARKS
NASHVILLE      CLOUDY    82  65  56 S17       30.04R                  
CLARKSVILLE    PTSUNNY   79  66  64 SW12G22   29.99R                  
SMYRNA         FAIR      80  67  64 SW10      30.05R                  
CROSSVILLE     FAIR      77  60  55 S9        30.12R                  
$$

TNZ061-075-076-078-094-096-097-221600-
SOUTH MIDDLE TENNESSEE
  
CITY           SKY/WX    TMP DP  RH WIND       PRES   REMARKS
$$

TNZ017-018-042-046-047-221600-
NORTHEAST TENNESSEE
  
CITY           SKY/WX    TMP DP  RH WIND       PRES   REMARKS
TRI CITIES     FAIR      79  62  56 CALM      30.15R                  
$$

TNZ012-013-036-069-073-074-221600-
CENTRAL EAST TENNESSEE
  
CITY           SKY/WX    TMP DP  RH WIND       PRES   REMARKS
KNOXVILLE      FAIR      81  62  52 CALM      30.09R                  
OAK RIDGE      FAIR      81  62  52 VRB5      30.10S                  
$$

TNZ083-085-099-221600-
SOUTHEAST TENNESSEE
  
CITY           SKY/WX    TMP DP  RH WIND       PRES   REMARKS
CHATTANOOGA    FAIR      82  64  54 S8        30.08R                  
$$

SKY/WX REPORTED AS FAIR MEANS FEW OR NO CLOUDS BELOW
12 THOUSAND FEET.